This is the latest recevied weather packets stored in our database for station/object KE8ZLU. If no packets are shown the sender has not sent any weather packets the latest 1 day(s).
| Time | Temp. | Humidity | Pressure | Rain* | Wind** | Luminosity | Snow |
|---|---|---|---|---|---|---|---|
| 1777996588 | 9.44° C | 84% | 1008.8 hPa | 0 mm | 3.13 m/s, 275° | 254 W/m² | - |
| 1777996285 | 9.44° C | 84% | 1008.8 hPa | 0 mm | 3.13 m/s, 275° | 254 W/m² | - |
| 1777995981 | 9.44° C | 84% | 1008.7 hPa | 1.78 mm | 3.13 m/s, 275° | 254 W/m² | - |
| 1777995677 | 9.44° C | 84% | 1008.9 hPa | 1.78 mm | 2.68 m/s, 270° | 223 W/m² | - |
| 1777995375 | 9.44° C | 85% | 1008.8 hPa | 0 mm | 1.79 m/s, 276° | 92 W/m² | - |
| 1777995072 | 9.44° C | 85% | 1008.9 hPa | 0 mm | 1.79 m/s, 276° | 92 W/m² | - |
| 1777994773 | 9.44° C | 85% | 1008.9 hPa | 0 mm | 1.79 m/s, 276° | 92 W/m² | - |
| 1777994464 | 9.44° C | 85% | 1009 hPa | 0 mm | 1.79 m/s, 276° | 92 W/m² | - |
| 1777994159 | 9.44° C | 85% | 1008.5 hPa | 0 mm | 1.79 m/s, 276° | 92 W/m² | - |
| 1777993857 | 9.44° C | 85% | 1008.5 hPa | 0 mm | 1.79 m/s, 276° | 92 W/m² | - |
| 1777993553 | 9.44° C | 85% | 1008.7 hPa | 0 mm | 1.79 m/s, 276° | 92 W/m² | - |
| 1777993249 | 9.44° C | 85% | 1008.6 hPa | 0 mm | 1.79 m/s, 276° | 92 W/m² | - |
| 1777992946 | 9.44° C | 85% | 1008.5 hPa | 0 mm | 1.79 m/s, 276° | 92 W/m² | - |
| 1777992644 | 9.44° C | 85% | 1008.4 hPa | 0 mm | 1.79 m/s, 276° | 92 W/m² | - |
| 1777992342 | 10.56° C | 75% | 1008.4 hPa | 0 mm | 1.79 m/s, 286° | 117 W/m² | - |
| 1777992039 | 10.56° C | 75% | 1008.3 hPa | 0 mm | 1.79 m/s, 286° | 117 W/m² | - |
| 1777991736 | 10.56° C | 75% | 1008.5 hPa | 0 mm | 1.79 m/s, 286° | 117 W/m² | - |
| 1777991433 | 10.56° C | 75% | 1008.5 hPa | 0 mm | 1.79 m/s, 286° | 117 W/m² | - |
| 1777991131 | 10.56° C | 75% | 1008.1 hPa | 0 mm | 1.79 m/s, 286° | 117 W/m² | - |
| 1777990828 | 10.56° C | 75% | 1008.2 hPa | 0 mm | 1.79 m/s, 286° | 117 W/m² | - |
| 1777990525 | 10.56° C | 75% | 1008.1 hPa | 0 mm | 1.79 m/s, 286° | 117 W/m² | - |
| 1777990222 | 10.56° C | 75% | 1007.9 hPa | 0 mm | 1.79 m/s, 286° | 117 W/m² | - |
| 1777989919 | 10.56° C | 75% | 1007.6 hPa | 0 mm | 1.79 m/s, 286° | 117 W/m² | - |
| 1777989616 | 10.56° C | 74% | 1007.5 hPa | 0 mm | 2.68 m/s, 286° | 114 W/m² | - |
| 1777989312 | 10.56° C | 74% | 1007.3 hPa | 0 mm | 4.02 m/s, 275° | 76 W/m² | - |
* Rain latest hour (hover to see other rain measurements)
** Current wind speed in m/s (hover to see current wind gust speed)